Regional Weather Roundup
Issued by NWS

Home | Current Version | Previous Version | Graphics & Text | Print | Product List | Glossary On
Versions: 1 2 3 4 5 6 7 8 9 10 11 12 13 14 15 16 17 18 19 20 21 22 23 24 25 26 27 28 29 30 31 32 33 34 35 36 37 38 39 40 41 42 43 44 45 46 47 48 49 50
000
ASUS43 KMPX 220510
RWRMN
WEATHER ROUNDUP FOR MINNESOTA
NATIONAL WEATHER SERVICE TWIN CITIES/CHANHASSEN MN
1200 AM CDT TUE JUL 22 2014


NOTE: "FAIR" INDICATES FEW OR NO CLOUDS BELOW 12,000 FEET WITH NO
SIGNIFICANT WEATHER AND/OR OBSTRUCTIONS TO VISIBILITY. N/A MEANS
CURRENT SKY AND/OR WEATHER CONDITIONS ARE NOT AVAILABLE.

MNZ060>063-068>070-220600-
   Twin Cities Metro

CITY           SKY/WX    TMP DP  RH WIND       PRES   REMARKS
TWIN CITIES    MOCLDY    82  75  79 S15       29.81R
ST PAUL          N/A     80  74  81 SE14      29.81R
CRYSTAL        MOCLDY    82  74  76 S14       29.79S
BLAINE         MOCLDY    82  75  78 S14       29.81S
LAKEVILLE      PTCLDY    79  73  83 S8        29.82R
EDEN PRAIRIE   PTCLDY    82  76  81 S15       29.79S
SOUTH ST PAUL  PTCLDY    81  73  75 S9        29.81F
LAKE ELMO      CLOUDY    81  73  78 S8G16     29.84S
$$
MNZ001>005-007-008-013>017-022>024-027-028-220600-
   Northwest Minnesota

CITY           SKY/WX    TMP DP  RH WIND       PRES   REMARKS
BEMIDJI        RAIN      65  64  97 N9        29.71F
HALLOCK        RAIN      64  63  94 NE13      29.75F
ROSEAU         TSTM      64  59  82 N9        29.79F
WARROAD        CLOUDY    64  61  88 N10G16    29.80F
THIEF RVR FALL CLOUDY    64  64 100 N25G33    29.69F
FOSSTON        LGT RAIN  64  63  94 CALM      29.67F
DETROIT LAKES  CLOUDY    66  64  94 S8        29.77R
MOORHEAD       CLOUDY    70  70 100 W12       29.79R
PARK RAPIDS    LGT RAIN  66  65  96 SE17      29.76F
$$
MNZ006-009>011-018-025>026-220600-
   North Central Minnesota

CITY           SKY/WX    TMP DP  RH WIND       PRES   REMARKS
BAUDETTE       RAIN      64  64 100 N23       29.79R FOG
FLAG ISLAND    LGT RAIN  68  63  83 N25       29.76R
INTL FALLS     TSTM      67  67 100 W12G30    29.72R VSB 1/2
WASKISH        TSTM      68  66  94 W15G22    29.76R
LONGVILLE      CLOUDY    66  64  94 SW9G21    29.84R
GRAND RAPIDS   CLOUDY    79  73  83 S14       29.77R
CRANE LAKE     CLOUDY    79  73  83 SE7       29.72F
ORR            DRIZZLE   79  72  78 S15       29.69F
COOK           DRIZZLE   81  73  78 S13G18    29.73F
$$
MNZ012-019>021-037-220600-
   Northeast Minnesota

CITY           SKY/WX    TMP DP  RH WIND       PRES   REMARKS
DULUTH         CLOUDY    78  71  79 S13       29.80F
ELY            MOCLDY    77  72  83 S8G17     29.77F
HIBBING        CLOUDY    81  73  76 S9G21     29.74F
EVELETH        CLOUDY    77  72  83 S13       29.76F
DULUTH HARBOR  CLOUDY    63  59  88 NE7       29.79S
TWO HARBORS    MOCLDY    73  68  83 E3        29.79F
SILVER BAY     PTCLDY    73  73 100 CALM      29.79F
GRAND MARAIS     N/A     60  59  96 NE7       29.81F
G MARAIS ARPRT MOCLDY    70  64  83 SE5       29.86F
$$
MNZ029>031-032-039>041-046>048-054>057-064-220600-
   West Central Minnesota

CITY           SKY/WX    TMP DP  RH WIND       PRES   REMARKS
FERGUS FALLS   CLOUDY    66  64  94 W5        29.80R
WHEATON        CLOUDY    66  64  94 N3        29.83R
MORRIS         CLOUDY    70  66  88 NW6       29.81R
ALEXANDRIA     CLOUDY    67  32  27 W9        29.83S
ELBOW LAKE     FAIR      66  65  96 CALM      29.79S
WADENA         TSTM      66  64  94 E7        29.75F
GLENWOOD       CLOUDY    66  64  94 CALM      29.83F
APPLETON       CLOUDY    75  64  69 N3        29.78F
BENSON         CLOUDY    73  64  73 N10       29.81F
MADISON        CLOUDY    81  73  78 CALM      29.78R
WILLMAR        FAIR      81  73  78 S6        29.79R
$$
MNZ033>034-036-042>043-049>051-058-059-220600-
   Central Minnesota

CITY           SKY/WX    TMP DP  RH WIND       PRES   REMARKS
ST CLOUD       CLOUDY    82  75  79 S8        29.78R
SAUK CENTRE    TSTM      66  64  95 NW9       29.84R
PAYNESVILLE    MOCLDY    77  73  88 SE8       29.79R
AITKIN         CLOUDY    82  73  74 SW9       29.82R
PINE RIVER     TSTM      66  64  94 SW6G23    29.90R
BRAINERD       TSTM      68  64  87 W13G45    29.90R FOG
STAPLES        TSTM      66  64  94 E6        29.79F
LONG PRAIRIE   TSTM      64  64 100 NW15G26   29.80F
LITTLE FALLS   LGT RAIN  79  72  78 W22G36    29.87R
LITCHFIELD     PTCLDY    81  79  94 S5        29.79R
BUFFALO        MOCLDY    81  74  78 SE7       29.80R
MAPLE LAKE     MOCLDY    81  76  85 S6        29.80R
$$
MNZ037-044-045-052-053-220600-
   East Central Minnesota

CITY           SKY/WX    TMP DP  RH WIND       PRES   REMARKS
PRINCETON      CLOUDY    82  75  78 S10G17    29.79S
MORA           CLOUDY    79  70  73 S8        29.80F
CAMBRIDGE      CLOUDY    84  72  65 S10       29.78F
RUSH CITY      CLOUDY    80  73  77 S9        29.80F
MOOSE LAKE     CLOUDY    79  72  78 S7        29.77F
HINCKLEY       CLOUDY    81  73  78 S12G21    29.79F
CLOQUET        CLOUDY    81  72  74 S8G16     29.80F
MCGREGOR       CLOUDY    79  73  83 SW9       29.81R
$$
MNZ071>073-080-081-089-090-097-098-220600-
   Southwest Minnesota

CITY           SKY/WX    TMP DP  RH WIND       PRES   REMARKS
MONTEVIDEO     MOCLDY    81  73  78 NW6G18    29.80R
GRANITE FALLS  MOCLDY    77  74  91 S7        29.79R
CANBY          MOCLDY    82  76  81 N14G28    29.81R HX  90
MARSHALL       PTCLDY    81  75  83 SW12      29.78R
REDWOOD FALLS  CLEAR     80  76  87 S13       29.77R
OLIVIA         PTCLDY    79  73  83 S9        29.78R
PIPESTONE      CLEAR     79  75  89 SW9       29.84S
WINDOM         PTCLDY    81  75  83 S7        29.82S
WORTHINGTON    PTCLDY    79  75  89 S10       29.85R
TRACY          CLEAR     80  77  89 SW13G20   29.81R
SLAYTON        CLEAR     79  76  90 S14       29.84R
$$
MNZ065>067-074>077-082>085-091>093-220600-
   South Central Minnesota

CITY           SKY/WX    TMP DP  RH WIND       PRES   REMARKS
MANKATO        CLEAR     81  73  78 S14       29.81S
NEW ULM        CLEAR     81  79  94 S13       29.79R
ST JAMES       CLEAR     82  75  78 S9        29.81S
FAIRMONT       PTCLDY    81  73  78 S13       29.82F
GLENCOE        MOCLDY    82  74  77 S7        29.79R
FARIBAULT      PTCLDY    84  72  65 S15G23    29.83S
OWATONNA       PTCLDY    81  73  78 S16G22    29.85S
WASECA         CLEAR     79  72  78 S15       29.85S
ALBERT LEA     CLEAR     81  75  83 S10G16    29.87R
$$
MNZ078>079-086>088-094>096-220600-
   Southeast Minnesota

CITY           SKY/WX    TMP DP  RH WIND       PRES   REMARKS
ROCHESTER      MOCLDY    78  71  79 S14G22    29.89F
RED WING       MOCLDY    81  72  74 S12       29.83S
STANTON        PTCLDY    81  73  76 S14G20    29.81S
DODGE CENTER   MOCLDY    79  73  83 S17G23    29.88S
WINONA         MOCLDY    79  70  73 S6        29.90S
AUSTIN         PTCLDY    79  73  83 S12       29.88S
PRESTON        PTCLDY    76  74  94 S13G18    29.93R
$$
ABBREVIATIONS USED IN REMARKS
   TC - TEMPERATURES IN CELSIUS
  WCI - WIND CHILL INDEX
   HX - HEAT INDEX
  VSB - VISIBILITY
$$



USA.gov is the U.S. government's official web portal to all federal, state and local government web resources and services.